TimePST,TemperatureF,Dew PointF,Humidity,Sea Level PressureIn,VisibilityMPH,Wind Direction,Wind SpeedMPH,Gust SpeedMPH,PrecipitationIn,Events,Conditions,WindDirDegrees,DateUTC
12:53 AM,57.0,48.9,74,30.06,6.0,East,3.5,-,N/A,,Haze,90,2013-02-05 08:53:00
1:53 AM,57.0,48.9,74,30.05,5.0,Calm,Calm,-,N/A,,Haze,0,2013-02-05 09:53:00
2:53 AM,55.9,48.9,77,30.04,5.0,Calm,Calm,-,N/A,,Haze,0,2013-02-05 10:53:00
3:53 AM,55.9,48.9,77,30.02,5.0,Calm,Calm,-,N/A,,Haze,0,2013-02-05 11:53:00
4:53 AM,55.9,48.9,77,30.02,5.0,Calm,Calm,-,N/A,,Haze,0,2013-02-05 12:53:00
5:53 AM,55.9,48.9,77,30.03,5.0,Calm,Calm,-,N/A,,Haze,0,2013-02-05 13:53:00
6:53 AM,55.9,48.9,77,30.05,5.0,Calm,Calm,-,N/A,,Haze,0,2013-02-05 14:53:00
7:53 AM,55.9,48.9,77,30.07,3.0,Calm,Calm,-,N/A,,Haze,0,2013-02-05 15:53:00
8:53 AM,55.9,48.9,77,30.09,3.0,Calm,Calm,-,N/A,,Haze,0,2013-02-05 16:53:00
9:53 AM,57.0,48.9,74,30.10,4.0,Calm,Calm,-,N/A,,Haze,0,2013-02-05 17:53:00
10:53 AM,57.0,48.9,74,30.10,4.0,SSE,3.5,-,N/A,,Haze,160,2013-02-05 18:53:00
11:53 AM,57.9,48.9,72,30.08,6.0,Calm,Calm,-,N/A,,Haze,0,2013-02-05 19:53:00
12:29 PM,57.2,48.2,72,30.05,6.0,Calm,Calm,-,N/A,,Haze,0,2013-02-05 20:29:00
12:53 PM,59.0,48.9,69,30.04,7.0,Calm,Calm,-,N/A,,Overcast,0,2013-02-05 20:53:00
1:53 PM,60.1,48.0,64,30.01,6.0,Calm,Calm,-,N/A,,Haze,0,2013-02-05 21:53:00
2:53 PM,60.1,48.9,67,29.99,6.0,Calm,Calm,-,N/A,,Haze,0,2013-02-05 22:53:00
3:53 PM,62.1,48.9,62,30.00,7.0,Calm,Calm,-,N/A,,Overcast,0,2013-02-05 23:53:00
4:53 PM,59.0,48.9,69,29.99,7.0,SSW,4.6,-,N/A,,Overcast,210,2013-02-06 00:53:00
5:53 PM,57.9,48.9,72,30.01,9.0,Variable,3.5,-,N/A,,Overcast,0,2013-02-06 01:53:00
6:53 PM,57.9,48.0,70,30.01,9.0,South,4.6,-,N/A,,Overcast,180,2013-02-06 02:53:00
7:53 PM,57.9,48.0,70,30.02,10.0,SSW,3.5,-,N/A,,Overcast,210,2013-02-06 03:53:00
8:53 PM,57.9,48.0,70,30.04,9.0,South,3.5,-,N/A,,Overcast,190,2013-02-06 04:53:00
9:53 PM,57.9,48.0,70,30.03,8.0,Calm,Calm,-,N/A,,Overcast,0,2013-02-06 05:53:00
10:53 PM,57.9,46.9,67,30.03,9.0,Calm,Calm,-,N/A,,Overcast,0,2013-02-06 06:53:00
11:53 PM,57.9,46.9,67,30.02,9.0,Calm,Calm,-,N/A,,Overcast,0,2013-02-06 07:53:00